Вернуться в каталог

DELTA 1 DEB

АктивенSSO
NORAD 3416·DEBRIS·🇺🇸 United States

Запущен Aug 16, 1968 с Vandenberg Space Force Base

Loading…

Ближайшие Пролёты (ближайшие 24 часа)

TLE

СвежийSource: Space-Track

Эпоха: Sep 14, 2026, 08:19 UTC

1 03416U 68069C   26257.34682303 -.00000030  00000-0  88505-4 0  9998
2 03416 101.7400  32.7803 0118801 334.0014  51.9066 12.67155265685563

Отслеживайте DELTA 1 DEB в реальном времени с AllMySat

Download on the App Store